Regional Weather Roundup
Issued by NWS

Home | Current Version | Previous Version | Graphics & Text | Print | Product List | Glossary On
Versions: 1 2 3 4 5 6 7 8 9 10 11 12 13 14 15 16 17 18 19 20 21 22 23 24 25 26 27 28 29 30 31 32 33 34 35 36 37 38 39 40 41 42 43 44 45 46 47 48 49 50
000
ASUS45 KBOU 130410
RWRCO

WEATHER ROUNDUP FOR COLORADO
NATIONAL WEATHER SERVICE DENVER/BOULDER CO
900 PM MST TUE DEC 12 2017

NOTE: "FAIR" INDICATES FEW OR NO CLOUDS BELOW 12000 FEET WITH NO
SIGNIFICANT WEATHER AND/OR OBSTRUCTIONS TO VISIBILITY.

COZ001>005-013-030-031-130500-
...NORTHWEST COLORADO...

CITY           SKY/WX    TMP DP  RH WIND       PRES   REMARKS
CRAIG          FAIR      16  11  80 CALM      30.32F
HAYDEN         FAIR      28  17  63 E8        30.33F WCI  20
MEEKER         FAIR      30  11  45 E6        30.34F WCI  24
RABBIT EARS PA FAIR      28   9  43 W8        30.40S WCI  20
STEAMBOAT SPGS FAIR      26  16  65 CALM      30.33F
WALDEN         FAIR      18   5  57 SE8       30.33F WCI   7
$$

COZ006>008-011-130500-
...WEST CENTRAL VALLEYS...

CITY           SKY/WX    TMP DP  RH WIND       PRES   REMARKS
GRAND JUNCTION FAIR      27   5  39 E3        30.32F
MONTROSE       FAIR      27   9  46 SE8       30.35F WCI  19
EAGLE          FAIR      21  13  71 SE5       30.41S WCI  15
RIFLE          FAIR      27  11  51 S3        30.35S
DELTA          FAIR      35   8  32 CALM      30.34F
NUCLA          FAIR      32   5  32 SE7       30.37R WCI  26
$$

COZ017>023-064>068-130500-
...SOUTHWEST COLORADO...

CITY           SKY/WX    TMP DP  RH WIND       PRES   REMARKS
DURANGO        FAIR      23   2  40 N5        30.30F WCI  17
CORTEZ         FAIR      22   2  42 NE8       30.32S WCI  12
PAGOSA SPRINGS FAIR      29   0  29 CALM      30.34S
TELLURIDE      FAIR      33   8  34 SE7       30.40F WCI  27
WOLF CREEK PAS FAIR      32   0  25 CALM      30.51F
$$

COZ009-010-012-014-032>034-037-058>063-130500-
...CENTRAL COLORADO...

CITY           SKY/WX    TMP DP  RH WIND       PRES   REMARKS
ASPEN          FAIR      28  13  53 S8        30.36F WCI  20
BUENA VISTA    FAIR      37  12  35 NW16      30.31F
COPPER MTN     NOT AVBL
BERTHOUD PASS  FAIR      21  10  63 NW36G47   30.38F WCI   2
COTTONWOOD PAS FAIR      43   7  22 W10G22    30.37S
GUNNISON       FAIR      19   7  59 CALM      30.39S
KREMMLING      FAIR      14  10  85 CALM      30.39F
LEADVILLE      FAIR      25   7  46 NE6       30.38F WCI  18
MONARCH PASS   FAIR      28   5  37 W20       30.54F WCI  15
SALIDA         FAIR      37   8  30 NW7       30.38F
SUNLIGHT       FAIR      32   1  27 W7        30.49S WCI  26
WILKERSON PASS FAIR      32   1  27 NW15G29   30.42F WCI  22
$$

COZ069>075-130500-
...SAN LUIS VALLEY/SANGRE DE CRISTO MOUNTAINS...

CITY           SKY/WX    TMP DP  RH WIND       PRES   REMARKS
ALAMOSA        FAIR      16  -2  45 SW5       30.31F WCI   9
DEL NORTE      FAIR      25   1  36 W9        30.33F WCI  15
LA VETA PASS   FAIR      32   3  29 SW23        N/A  WCI  19
SAGUACHE       FAIR      32   9  37 W3        30.33S
$$

COZ035-036-038>040-130500-
...NORTHERN COLORADO FRONT RANGE...

CITY           SKY/WX    TMP DP  RH WIND       PRES   REMARKS
DENVER INTL AP FAIR      44  11  26 SW12      30.11F
DMNS CITY PARK NOT AVBL
AURORA         PTCLDY    42  12  29 SW10      30.14F
FRONT RANGE AP FAIR      50  11  21 SW12      30.12F
ERIE MUNI ARPT FAIR      53   5  14 W10       30.16F
BOULDER MUN AP FAIR      55  10  16 W5        30.11F
CENTENNIAL     FAIR      36  14  40 SE6       30.15F
BROOMFIELD     NOT AVBL
FORT COLLINS   FAIR      52  10  18 SW6       30.09F
LONGMONT       FAIR      54   8  15 W3        30.11F
$$

COZ041-046-047-076>085-087-088-130500-
...PIKES PEAK/PALMER DIVIDE AND SOUTHERN FOOTHILLS...

CITY           SKY/WX    TMP DP  RH WIND       PRES   REMARKS
COLO. SPRINGS  FAIR      36  11  35 N9        30.19F
A. F. ACADEMY  FAIR      29   9  43 N7        30.18F WCI  21
SCHRIEVER AFB  FAIR      44   8  23 NW7       30.18F
CHEYENNE MTN   FAIR      48   9  20 CALM      30.15F
ELLICOTT         N/A    N/A N/A N/A N3        30.16F
FALCON         FAIR      34   8  33 W9        30.21F WCI  26
FORT CARSON    FAIR      41  11  29 NW14      30.15F
LIMON          FAIR      31  12  45 N6        30.12F WCI  25
MONUMENT HILL  FAIR      34  10  37 W9        30.22F WCI  26
CANON CITY     FAIR      43  14  31 W6        30.15F
WALSENBURG     FAIR      45   9  23 SW7       30.17R
TRINIDAD       FAIR      44  10  25 SW15      30.15F
$$

COZ042>045-048>051-090-091-130500-
...NORTHEAST COLORADO...

CITY           SKY/WX    TMP DP  RH WIND       PRES   REMARKS
GREELEY ARPT   FAIR      30  15  53 W5        30.09F WCI  25
AKRON          FAIR      44  14  29 MISG      30.05F
BURLINGTON     FAIR      38  15  39 W12       30.05F
WRAY           FAIR      36  16  44 W9        30.01F
YUMA           FAIR      32  14  47 W10       30.02F WCI  24
STERLING       FAIR      50  14  23 W16       30.00F
HOLYOKE        FAIR      37  16  41 W9        29.99F
FORT MORGAN    FAIR      33  14  44 W13       30.06F WCI  24
$$

COZ086-089-092>099-130500-
...SOUTHEAST COLORADO...

CITY           SKY/WX    TMP DP  RH WIND       PRES   REMARKS
PUEBLO         FAIR      34  10  37 W6        30.12F WCI  29
LA JUNTA       FAIR      37  11  34 CALM      30.10S
LAMAR          FAIR      27   9  46 W7        30.06F WCI  19
SPRINGFIELD      N/A     34  13  41 NW5       30.09F WCI  30
$$



USA.gov is the U.S. government's official web portal to all federal, state and local government web resources and services.